Tracking 29892 objects as of 21-Nov-2024
HD Live streaming from Space Station
objects crossing your sky now

ONEWEB-0112

Track ONEWEB-0112 now!
10-day predictions
ONEWEB-0112 is classified as:


NORAD ID: 48051
Int'l Code: 2021-025K
Perigee: 1,215.7 km
Apogee: 1,218.2 km
Inclination: 87.9 °
Period: 109.6 minutes
Semi major axis: 7587 km
RCS: Unknown
Launch date: March 25, 2021
Source: United States (US)
Launch site: VOSTOCHNY COSMODROME (VOSTO)
Your satellite tracking list
Your tracking list is empty




NASA's NSSDC Master Catalog

Two Line Element Set (TLE):
1 48051U 21025K   24325.26292447  .00000710  00000-0  19088-2 0  9996
2 48051  87.8914  74.3637 0001662 103.1217 257.0098 13.13463348178257
Source of the keplerian elements: AFSPC